[[{"header":{"parameterUnit":"m.s-1","parameterCategory":1,"la1":30.2991,"la2":30.254,"lo1":-89.0895,"lo2":-89.0444,"dy":0.0017,"dx":0.0017,"nx":28,"ny":28,"refTime":"2025-07-28T03:00:00:Z","depth":0,"parameterNumber":2,"parameterNumberName":"U-component_of_WINDS"},"data":[0,0,0,0,0,0,0,0,0,0,0,0,0,0,0,0,0,0,0,0,0,0,0,0,0,0,0,0,0,0,0,0,0,0,0,0,0,0,0,0,0,0,0,0,0,0,0,0,0,0,0,0,0,0,0,0,0,0,3.4427,3.4428,0,3.4559,3.4561,3.4562,3.4504,3.4501,3.4497,3.4494,3.463,3.4637,3.4643,0,0,0,0,0,0,0,0,0,0,0,0,0,3.4124,3.413,3.4427,3.4428,3.443,3.4559,3.4561,3.4563,3.4504,3.45,3.4496,3.4493,3.4628,3.4636,3.4644,0,0,0,0,0,0,0,0,0,0,0,0,0,3.4256,3.4131,3.4427,3.4417,3.4417,3.4559,3.4561,3.4563,3.4505,3.45,3.4495,3.4491,3.4625,3.4635,3.4645,3.4804,0,0,3.4676,3.468,0,0,0,0,0,0,0,0,3.4248,3.4267,3.4416,3.4418,3.4418,3.451,3.4504,3.4644,3.4506,3.4472,3.4494,3.4488,3.4594,3.4606,3.4642,3.4811,3.4816,3.4676,3.4682,3.4687,3.469,0,0,0,0,0,0,0,3.4239,3.4261,3.4479,3.4419,3.442,3.4405,3.4419,3.453,3.4559,3.4474,3.447,3.4487,3.4594,3.4633,3.4645,3.4818,3.4676,3.4685,3.4691,3.4695,3.5123,3.5128,0,0,0,0,0,0,3.423,3.4254,3.4475,3.4483,3.4319,3.4415,3.443,3.4485,3.4557,3.4564,3.4491,3.4484,3.4618,3.4633,3.4649,3.4839,3.4687,3.4696,3.4702,3.5117,3.5124,3.513,0,0,0,0,0,0,3.4224,3.425,3.447,3.4367,3.4394,3.4425,3.4488,3.4491,3.4529,3.457,3.4575,3.4525,3.4615,3.4635,3.4766,3.4843,3.4701,3.471,3.5111,3.5119,3.5127,3.5221,0,0,0,0,0,0,3.4215,3.4248,3.4309,3.4369,3.44,3.4584,3.4493,3.4497,3.4547,3.4538,3.4603,3.4609,3.4612,3.4751,3.4776,3.4854,3.4717,3.5104,3.5115,3.5124,3.5211,3.5231,3.5248,0,0,0,0,0,3.4205,3.4331,3.4313,3.434,3.4477,3.4589,3.4606,3.4607,3.4553,3.4614,3.464,3.4607,3.4831,3.4765,3.4792,3.4875,3.5099,3.5112,3.5124,3.5202,3.5227,3.5248,0,0,0,0,0,0,3.428,3.4339,3.4319,3.4468,3.4524,3.4579,3.4656,3.4633,3.4705,3.4695,3.4693,3.4708,3.4843,3.4872,3.4797,3.5032,3.4957,3.4975,3.5008,3.5031,3.505,3.5039,3.4726,0,0,0,0,0,3.4314,3.44,3.4447,3.4574,3.4603,3.4625,3.4674,3.4669,3.4727,3.475,3.4786,3.4843,3.4926,3.498,3.5059,3.5215,3.5228,3.5285,3.5304,3.5319,3.5334,3.5418,3.5443,3.517,3.5169,3.5169,0,0,3.4384,3.4427,3.4482,3.459,3.4632,3.4721,3.4645,3.4742,3.4808,3.4765,3.489,3.4918,3.4982,3.5125,3.519,3.5154,3.5413,3.5335,3.5346,3.5353,3.5433,3.5459,3.5482,3.5178,3.5176,3.5175,0,0,3.4558,3.46,3.471,3.4754,3.4819,3.4833,3.4859,3.4918,3.4935,3.506,3.5029,3.5107,3.5251,3.5297,3.5339,3.5531,3.5502,3.5556,3.5653,3.5735,3.5756,3.5775,3.5842,3.5866,3.5572,3.5572,3.5572,0,3.4638,3.477,3.4769,3.4869,3.4917,3.4882,3.4993,3.5036,3.5124,3.5157,3.5116,3.5294,3.5334,3.5487,3.5534,3.557,3.5599,3.5548,3.5753,3.5772,3.579,3.5854,3.5879,3.5578,3.5577,3.5577,3.5576,0,3.4864,3.4957,3.5038,3.5123,3.518,3.5285,3.5299,3.5358,3.5349,3.5367,3.5494,3.5542,3.5629,3.5665,3.5658,3.5817,3.5792,3.5753,3.5677,3.5822,3.5882,3.5906,3.5587,3.5584,3.5583,3.5581,0,0,3.5088,3.5171,3.5201,3.5238,3.5308,3.5379,3.5482,3.5567,3.5616,3.5679,3.5764,3.5886,3.5849,3.5897,3.5894,3.5966,3.6113,3.5917,3.5918,3.595,3.629,3.6318,3.6346,3.6095,3.61,3.6103,3.6284,0,3.5266,3.5446,3.5448,3.5614,3.5698,3.5667,3.5756,3.5808,3.5828,3.5903,3.5925,3.6011,3.5956,3.5985,3.6054,3.608,3.618,3.6067,3.6174,3.6177,3.6157,3.6378,3.6409,3.6576,3.6307,3.6311,3.6314,0,3.5497,3.5566,3.574,3.5796,3.5832,3.5912,3.5989,3.6062,3.612,3.6129,3.6183,3.6169,3.6274,3.6196,3.634,3.6263,3.6307,3.6326,3.6333,3.6341,3.6253,3.6391,3.663,3.6654,3.6351,3.6348,3.6345,0,3.5641,3.5777,3.5898,3.5932,3.6001,3.6058,3.6089,3.6143,3.6194,3.6261,3.6294,3.6374,3.6417,3.6478,3.6486,3.6429,3.663,3.6554,3.664,3.664,3.6683,3.6679,3.693,3.6714,3.6714,3.6713,3.6713,0,3.5838,3.5945,3.5963,3.6038,3.6157,3.6158,3.6276,3.6303,3.6351,3.6429,3.6408,3.6482,3.6489,3.6566,3.6573,3.669,3.671,3.672,3.672,3.6721,3.6719,3.6748,3.6736,3.672,3.6718,3.6717,3.6716,0,3.6018,3.6035,3.6164,3.6219,3.6235,3.632,3.6367,3.6438,3.6456,3.6556,3.6579,3.6607,3.6696,3.6711,3.6816,3.682,3.696,3.6949,3.694,3.6938,3.7023,3.7014,3.73,3.7337,3.7098,3.71,3.7102,0,3.6141,3.6223,3.6286,3.6337,3.6372,3.6455,3.6506,3.651,3.6565,3.6637,3.6699,3.6786,3.6855,3.6999,3.7028,3.7108,3.7098,3.7193,3.711,3.7107,3.7097,3.7091,3.7099,3.7208,3.721,3.7213,3.7214,0,3.6359,3.6363,3.6438,3.6516,3.6577,3.6639,3.6697,3.674,3.6752,3.6814,3.6905,3.6958,3.7065,3.7151,3.723,3.7262,3.724,3.724,3.7264,3.7265,3.7255,3.726,3.6981,3.7233,3.7232,3.723,3.7229,3.7228,3.6513,3.6584,3.6639,3.6723,3.6767,3.6822,3.689,3.6917,3.6992,3.7079,3.7077,3.7176,3.7232,3.7336,3.7373,3.7451,3.742,3.7455,3.7464,3.7472,3.7479,3.7245,3.7465,3.7465,3.7464,3.7464,3.7464,0,3.6728,3.6762,3.6839,3.692,3.6986,3.696,3.7023,3.708,3.7167,3.7221,3.7289,3.7393,3.7476,3.7512,3.7594,3.7648,3.764,3.767,3.7665,3.7672,3.7503,3.7473,3.7675,3.7675,3.7675,3.7675,3.7674,3.7674,3.6847,3.6964,3.6975,3.7114,3.7147,3.7244,3.7282,3.7332,3.7374,3.7491,3.756,3.7583,3.7629,3.7714,3.7789,3.7797,3.7828,3.7861,3.7865,3.7706,3.7684,3.7664,3.7636,3.7868,3.7869,3.8028,3.8029,3.803]},{"header":{"parameterUnit":"m.s-1","parameterCategory":1,"la1":30.2991,"la2":30.254,"lo1":-89.0895,"lo2":-89.0444,"dy":0.0017,"dx":0.0017,"nx":28,"ny":28,"refTime":"2025-07-28T03:00:00:Z","depth":0,"parameterNumber":3,"parameterNumberName":"V-component_of_WINDS"},"data":[0,0,0,0,0,0,0,0,0,0,0,0,0,0,0,0,0,0,0,0,0,0,0,0,0,0,0,0,0,0,0,0,0,0,0,0,0,0,0,0,0,0,0,0,0,0,0,0,0,0,0,0,0,0,0,0,0,0,1.9204,1.9203,0,1.9177,1.9177,1.9177,1.9129,1.9128,1.9127,1.9126,1.9099,1.9099,1.9099,0,0,0,0,0,0,0,0,0,0,0,0,0,1.921,1.921,1.9204,1.9203,1.9203,1.9178,1.9177,1.9177,1.9129,1.9128,1.9127,1.9126,1.9099,1.9099,1.9099,0,0,0,0,0,0,0,0,0,0,0,0,0,1.9198,1.921,1.9204,1.9176,1.9173,1.9178,1.9177,1.9177,1.9129,1.9128,1.9126,1.9125,1.9099,1.9099,1.9099,1.9128,0,0,1.91,1.91,0,0,0,0,0,0,0,0,1.9198,1.9198,1.918,1.9178,1.9175,1.9155,1.9169,1.916,1.9129,1.9146,1.9126,1.9124,1.9119,1.9117,1.9115,1.9127,1.9126,1.91,1.91,1.91,1.91,0,0,0,0,0,0,0,1.9199,1.9198,1.9193,1.918,1.9177,1.9164,1.9161,1.9167,1.914,1.9144,1.9141,1.9138,1.9117,1.9115,1.9114,1.9125,1.91,1.91,1.91,1.91,1.9157,1.9158,0,0,0,0,0,0,1.9204,1.9199,1.9194,1.9192,1.9183,1.9165,1.9162,1.9163,1.914,1.9135,1.914,1.9136,1.9115,1.9114,1.9113,1.9144,1.91,1.91,1.91,1.9156,1.9157,1.9159,0,0,0,0,0,0,1.9205,1.9204,1.9195,1.9195,1.9193,1.9167,1.9168,1.9163,1.9161,1.9137,1.9131,1.9143,1.9114,1.9113,1.9124,1.9143,1.91,1.91,1.9154,1.9156,1.9158,1.9208,0,0,0,0,0,0,1.9205,1.9205,1.9216,1.9196,1.9193,1.9208,1.9169,1.9163,1.9162,1.9157,1.9138,1.9134,1.9113,1.9124,1.9124,1.9142,1.9101,1.9152,1.9155,1.9157,1.9204,1.9211,1.9217,0,0,0,0,0,1.9206,1.9232,1.9217,1.9217,1.9207,1.9209,1.9207,1.9183,1.9164,1.9174,1.9158,1.9134,1.914,1.9126,1.9126,1.9144,1.9151,1.9154,1.9157,1.9201,1.921,1.9217,0,0,0,0,0,0,1.9256,1.9229,1.9212,1.9233,1.9223,1.9201,1.9214,1.9193,1.9189,1.9185,1.9154,1.9151,1.9166,1.9156,1.914,1.9169,1.9142,1.9145,1.9175,1.9183,1.919,1.9192,1.9101,0,0,0,0,0,1.9269,1.9273,1.9249,1.9269,1.9266,1.9241,1.9241,1.9222,1.9212,1.9207,1.9192,1.9182,1.9181,1.9182,1.918,1.9202,1.9197,1.9214,1.9221,1.9226,1.9229,1.9238,1.9246,1.9169,1.9169,1.9169,0,0,1.9297,1.9283,1.9287,1.9279,1.927,1.9274,1.9238,1.9244,1.9247,1.9208,1.9218,1.9206,1.9193,1.9209,1.9216,1.9202,1.9249,1.923,1.9235,1.9235,1.9242,1.925,1.9256,1.9171,1.9171,1.917,0,0,1.935,1.934,1.9355,1.9346,1.9332,1.9315,1.9318,1.9298,1.9289,1.9298,1.9269,1.9271,1.9271,1.9262,1.9258,1.9305,1.9282,1.9305,1.9338,1.9348,1.9354,1.9359,1.9374,1.938,1.9308,1.9308,1.9308,0,1.9386,1.9392,1.9365,1.9373,1.9369,1.9334,1.9348,1.9341,1.9327,1.9325,1.9309,1.9307,1.9296,1.9309,1.932,1.9318,1.932,1.9307,1.9355,1.936,1.9364,1.9379,1.9385,1.9311,1.9311,1.931,1.931,0,1.9436,1.9441,1.9454,1.9441,1.9439,1.9451,1.9424,1.9425,1.9407,1.9391,1.94,1.9384,1.9378,1.938,1.9362,1.939,1.9381,1.9361,1.9332,1.9375,1.9388,1.9393,1.9315,1.9314,1.9313,1.9312,0,0,1.9521,1.9492,1.9497,1.949,1.9471,1.9474,1.9482,1.9476,1.9477,1.9468,1.9474,1.9474,1.9454,1.9449,1.9429,1.9438,1.9474,1.9415,1.9415,1.9426,1.9502,1.9517,1.9524,1.9459,1.946,1.946,1.9502,0,1.9569,1.9583,1.9558,1.9577,1.958,1.9545,1.9553,1.9541,1.9526,1.9526,1.9508,1.9508,1.9483,1.9479,1.9486,1.9468,1.9488,1.9465,1.9463,1.9463,1.9467,1.9531,1.9548,1.9588,1.9507,1.9508,1.9509,0,1.9628,1.9621,1.9641,1.9619,1.9619,1.9626,1.9617,1.9617,1.9603,1.9591,1.9585,1.9561,1.9567,1.954,1.9546,1.953,1.9528,1.9519,1.952,1.9518,1.9489,1.9531,1.9601,1.9607,1.9517,1.9516,1.9516,0,1.9687,1.9683,1.9693,1.9688,1.9664,1.9669,1.9659,1.9643,1.964,1.9632,1.9629,1.9622,1.9618,1.9612,1.9587,1.957,1.9596,1.9567,1.9586,1.9586,1.9593,1.9593,1.9663,1.9592,1.9592,1.9592,1.9592,0,1.9743,1.9756,1.9719,1.9726,1.9738,1.9709,1.9722,1.9708,1.9694,1.9697,1.9666,1.9669,1.9636,1.9634,1.9615,1.9622,1.9621,1.961,1.9605,1.9613,1.9614,1.9611,1.9607,1.9593,1.9593,1.9593,1.9592,0,1.9811,1.9787,1.9796,1.9771,1.9765,1.9776,1.9754,1.9758,1.974,1.9744,1.9743,1.9715,1.9711,1.9685,1.9676,1.9663,1.9677,1.9667,1.9682,1.9679,1.9698,1.9697,1.9769,1.9776,1.9701,1.9702,1.9703,0,1.9849,1.9858,1.9833,1.9833,1.9824,1.9823,1.982,1.979,1.9788,1.9771,1.9777,1.9771,1.9765,1.9761,1.9739,1.9731,1.972,1.9745,1.9718,1.9726,1.9719,1.9719,1.9719,1.9751,1.9752,1.9753,1.9754,0,1.9918,1.9905,1.9901,1.9893,1.9889,1.9881,1.9871,1.9872,1.984,1.9838,1.9834,1.9829,1.9819,1.9813,1.9801,1.9789,1.9766,1.9762,1.9766,1.9774,1.9783,1.9777,1.9698,1.9761,1.976,1.9759,1.9759,1.9759,1.9971,1.9977,1.996,1.9956,1.9945,1.9936,1.9939,1.9921,1.9917,1.9907,1.9889,1.9887,1.987,1.9852,1.9842,1.9839,1.9826,1.9832,1.9833,1.9835,1.9838,1.9783,1.9837,1.9837,1.9837,1.9836,1.9836,0,2.0037,2.0024,2.0021,2.0008,2.0005,1.9982,1.997,1.9968,1.9967,1.9953,1.9947,1.9942,1.9935,1.9912,1.9903,1.9905,1.9894,1.9904,1.9903,1.9901,1.9852,1.9849,1.9913,1.9913,1.9913,1.9913,1.9913,1.9913,2.0072,2.008,2.0064,2.0066,2.0053,2.0051,2.0045,2.0036,2.0025,2.002,2.0014,1.9999,1.9982,1.997,1.9963,1.9956,1.9954,1.9967,1.9957,1.9912,1.9904,1.9897,1.9895,1.9967,1.9967,2.0006,2.0006,2.0006]}]]